Home   Weather   Greenwich Borough   Past weeks
Flag for United Kingdom

Past Weather in Greenwich Borough, England, United Kingdom — Yesterday and Last 2 Weeks

Now
68 °F

Scattered showers. Scattered clouds.


Feels Like: 68 °F
Forecast: 75 / 58 °F
Wind: 15 mph from Southwest

Location: Biggin Hill Airport

Current Time: Jul 20, 2019 at 12:43:59 pm

Latest Report: Jul 20, 2019 at 12:20 pm


Visibility: N/A

Pressure: 29.77 "Hg

Humidity: 73%

Dew Point: 59 °F

Location of Greenwich BoroughLocation

Past Weather in Greenwich Borough — Graph

°F

Greenwich Borough Temperature Yesterday

Maximum temperature yesterday: 63 °F (at 10:20 am)
Minimum temperature yesterday: 55 °F (at 6:20 am)
Average temperature yesterday: 61 °F

High & Low Weather Summary for the Past Weeks

 TemperatureHumidityPressure
High79 °F (Jul 5, 5:20 pm)100% (Jul 18, 7:20 am)30.24 "Hg (Jul 18, 7:20 am)
Low54 °F (Jul 15, 6:20 am)33% (Jul 12, 12:50 pm)29.71 "Hg (Jul 20, 7:20 am)
Average66 °F69%30.04 "Hg
* Reported Jul 5 11:20 am — Jul 20 11:20 am, Greenwich Borough. Weather by CustomWeather, © 2019

Note: Actual official high and low records may vary slightly from our data, if they occured in-between our weather recording intervals... More about our weather records

Advertising

Greenwich Borough Weather History for the Previous 24 Hours

Scroll right to see more
 ConditionsComfort  
Time TempWeatherWind HumidityBarometerVisibility
11:20 am
Sat, Jul 20
68 °FScattered clouds.16 mph83%29.74 "HgN/A
10:50 am66 °FScattered clouds.12 mph88%29.74 "HgN/A
10:20 am66 °FScattered showers. Scattered clouds.13 mph88%29.74 "HgN/A
9:50 am63 °FScattered showers. Partly sunny.12 mph100%29.74 "HgN/A
9:20 am63 °FScattered showers. Partly sunny.12 mph100%29.74 "HgN/A
8:50 am66 °FScattered clouds.8 mph83%29.74 "HgN/A
7:50 am63 °FThunderstorms. Partly sunny.14 mph100%29.71 "Hg3 mi
7:20 am61 °FScattered clouds.13 mph100%29.71 "HgN/A
10:20 pm
Fri, Jul 19
63 °FPassing clouds.15 mph100%29.80 "HgN/A
9:50 pm63 °FPassing clouds.15 mph100%29.83 "HgN/A
9:20 pm63 °FPassing clouds.15 mph100%29.83 "HgN/A
8:50 pm63 °FPartly sunny.18 mph100%29.83 "Hg4 mi
8:20 pm63 °FDrizzle. Fog.15 mph100%29.83 "Hg1 mi
7:50 pm63 °FDrizzle. Fog.20 mph100%29.83 "Hg1 mi
7:20 pm63 °FDrizzle. Fog.16 mph100%29.83 "Hg1 mi
6:20 pm63 °FFog.16 mph100%29.83 "Hg1 mi
5:50 pm63 °FPartly sunny.17 mph94%29.86 "HgN/A
5:20 pm63 °FPartly sunny.17 mph100%29.86 "HgN/A
4:50 pm61 °FBroken clouds.16 mph94%29.86 "Hg4 mi
4:20 pm61 °FDrizzle. Fog.14 mph94%29.86 "Hg1 mi
3:50 pm61 °FDrizzle. Fog.17 mph94%29.86 "Hg1 mi
3:20 pm61 °FDrizzle. Partly sunny.20 mph100%29.89 "Hg1 mi
2:50 pm61 °FDrizzle. Fog.18 mph100%29.89 "Hg2 mi
2:20 pm61 °FDrizzle. Fog.18 mph94%29.89 "Hg2 mi
1:50 pm61 °FLight rain. Fog.17 mph94%29.89 "Hg2 mi
1:20 pm61 °FLight rain. Partly sunny.16 mph88%29.89 "Hg5 mi
12:50 pm61 °FLight rain. Partly sunny.17 mph83%29.89 "Hg5 mi
12:20 pm63 °FScattered showers. Scattered clouds.16 mph88%29.89 "HgN/A
Weather by CustomWeather, © 2019

See weather overview